This is the latest recevied weather packets stored in our database for station/object OK1FET-15. If no packets are shown the sender has not sent any weather packets the latest 10 day(s).
| Time | Temp. | Humidity | Pressure | Rain* | Wind** | Luminosity | Snow |
|---|---|---|---|---|---|---|---|
| 1787487787 | 30.56° C | 43% | 1022.2 hPa | - | - | - | - |
| 1787487478 | 30.56° C | 41% | 1022.3 hPa | - | - | - | - |
| 1787487170 | 30.56° C | 43% | 1022.3 hPa | - | - | - | - |
| 1787486861 | 30° C | 44% | 1022.2 hPa | - | - | - | - |
| 1787486552 | 30° C | 44% | 1022.3 hPa | - | - | - | - |
| 1787486243 | 30° C | 33% | 1022.3 hPa | - | - | - | - |
| 1787485935 | 30° C | 40% | 1022.3 hPa | - | - | - | - |
| 1787485626 | 30° C | 47% | 1022.3 hPa | - | - | - | - |
| 1787485317 | 30° C | 40% | 1022.4 hPa | - | - | - | - |
| 1787485009 | 29.44° C | 38% | 1022.4 hPa | - | - | - | - |
| 1787484700 | 30° C | 41% | 1022.5 hPa | - | - | - | - |
| 1787484391 | 30° C | 37% | 1022.4 hPa | - | - | - | - |
| 1787484082 | 30.56° C | 42% | 1022.5 hPa | - | - | - | - |
| 1787483774 | 30° C | 37% | 1022.5 hPa | - | - | - | - |
| 1787483465 | 30° C | 40% | 1022.6 hPa | - | - | - | - |
| 1787483156 | 30.56° C | 50% | 1022.7 hPa | - | - | - | - |
| 1787482847 | 29.44° C | 59% | 1022.7 hPa | - | - | - | - |
| 1787482539 | 28.33° C | 57% | 1022.7 hPa | - | - | - | - |
| 1787482230 | 27.22° C | 55% | 1022.8 hPa | - | - | - | - |
| 1787481922 | 28.33° C | 40% | 1022.8 hPa | - | - | - | - |
| 1787481613 | 27.78° C | 42% | 1022.8 hPa | - | - | - | - |
| 1787481305 | 27.78° C | 40% | 1022.8 hPa | - | - | - | - |
| 1787480996 | 27.78° C | 48% | 1022.8 hPa | - | - | - | - |
| 1787480688 | 28.33° C | 56% | 1022.8 hPa | - | - | - | - |
| 1787480379 | 27.78° C | 55% | 1022.8 hPa | - | - | - | - |
* Rain since midnight (hover to see other rain measurements)
** Current wind speed in m/s (hover to see current wind gust speed)